Probability
0 0 0 0 0 0 0 0 0 0 0 0 0 0 0 0 0 0 0 0 0 0 0 0 0 0 0 0 0 0 0 0 0 0 0 0 0 0 0 0 0 0 0
0 0 0 0 0 0 0 0 0 0 0 0 0 0 0 0 0 0 0 0 0 0 0 0 0 0 0 0 0 0 0 0 0 0 0 0 0 0 0 0 0 0 0
0 0 0 0 0 0 0 0 0 0 0 0 0 0 0 0 0 0 0 0 0 0 0 0 0 0 0 0 0 0 0 0 0 0 0 0 0 0 0 0 0 0 0
0 0 0 0 0 0 0 0 0 0 0 0 0 0 0 0 0 0 0 0 0 0 0 0 0 0 0 0 0 0 0 0 0 0 0 0 0 0 0 0 0 0 0
0 0 0 0 0 0 0 0 0 0 0 0 0 0 0 0 0 0 0 0 0 0 0 0 0 0 0 0 0 0 0 0 0 0 0 0 0 0 0 0 0 0 0
0 0 0 0 0 0 0 0 0 0 0 0 0 0 0 0 0 0 0 0 0 0 0 0 0 0 0 0 0 1 0 0 0 0 0 0 0 0 0 0 0 0 0
0 0 0 0 0 0 0 0 0 0 0 0 0 0 0 0 0 0 0 0 0 0 0 0 0 0 0 0 0 0 0 0 0 0 0 0 0 0 0 0 0 0 0
0 0 0 0 0 0 0 0 0 0 0 0 0 0 0 0 0 0 0 0 0 0 0 0 0 0 0 0 0 0 0 0 0 0 0 0 0 0 0 0 0 0 0
0 0 0 0 0 0 0 0 0 0 0 0 0 0 0 0 0 0 0 0 0 0 0 0 0 0 0 0 0 0 0 0 0 0 0 0 0 0 0 0 0 0 0
0 0 0 0 0 0 0 0 0 0 0 0 0 0 0 0 0 0 0 0 0 0 0 0 0 0 0 0 0 0 0 0 0 0 0 0 0 0 0 0 0 0 0
1 1 1 1 0 0 0 0 0 0 0 0 0 0 0 0 0 0 0 0 0 0 0 0 0 0 0 0 0 0 0 0 0 0 0 0 0 0 0 0 0 0 0
2 2 2 1 1 1 0 0 0 0 0 0 0 0 0 0 0 0 0 0 0 0 0 0 0 0 0 0 0 0 0 0 0 0 0 0 0 0 0 0 0 0 1
2 2 1 1 1 1 0 0 0 0 0 0 0 0 0 0 0 0 0 0 0 0 0 0 0 0 0 0 0 0 0 0 0 0 0 0 0 0 0 0 0 0 1
1 1 0 0 1 1 0 0 0 0 0 0 0 0 0 0 0 0 0 0 0 0 0 0 0 0 0 0 0 0 0 0 0 0 0 0 0 0 0 0 0 0 1
0 0 0 0 0 0 0 0 0 0 0 0 0 0 0 0 0 0 0 0 0 0 0 0 0 0 0 0 0 0 0 0 0 0 0 0 0 0 0 0 0 0 0
0 0 0 0 0 0 0 0 0 0 0 0 0 0 0 0 0 0 0 0 0 0 0 0 0 0 0 0 0 0 0 0 0 0 0 0 0 0 0 0 0 0 0
0 0 0 0 0 0 0 0 0 0 0 0 0 0 0 0 0 0 0 0 0 0 0 0 0 0 0 0 0 0 0 0 0 0 0 0 0 0 0 0 0 0 0
0 0 0 0 0 0 0 0 0 0 0 0 0 0 0 0 0 0 0 0 0 0 0 0 0 0 0 0 0 0 0 0 0 0 0 0 0 0 0 0 0 0 0
0 0 0 0 0 0 0 0 0 0 0 0 0 0 0 0 0 0 0 0 0 0 0 0 0 0 0 0 0 0 0 0 0 0 0 0 0 0 0 0 0 0 0
0 0 0 0 0 0 0 0 0 0 0 0 0 0 0 0 0 0 0 0 0 0 0 0 0 0 0 0 0 0 0 0 0 0 0 0 0 0 0 0 0 0 0
0 0 0 0 0 0 0 0 0 0 0 0 0 0 0 0 0 0 0 0 0 0 0 0 0 0 0 0 0 0 0 0 0 0 0 0 0 0 0 0 0 0 0
0 0 0 0 0 0 0 0 0 0 0 0 0 0 0 0 0 0 0 0 0 0 0 0 0 0 0 0 0 0 0 0 0 0 0 0 0 0 0 0 0 0 0
0 0 0 0 0 0 0 0 0 0 0 0 0 0 0 0 0 0 0 0 0 0 0 0 0 0 0 0 0 0 0 0 0 0 0 0 0 0 0 0 0 0 0
0 0 0 0 0 0 0 0 0 0 0 0 0 0 0 0 0 0 0 0 0 0 0 0 0 0 0 0 0 0 0 0 0 0 0 0 0 0 0 0 0 0 0
0 0 0 0 0 0 0 0 0 0 0 0 0 0 0 0 0 0 0 0 0 0 0 0 0 0 0 0 0 0 0 0 0 0 0 0 0 0 0 0 0 0 0
0 0 0 0 0 0 0 0 0 0 0 0 0 0 0 0 0 0 0 0 0 0 0 0 0 0 0 0 0 0 0 0 0 0 0 0 0 0 0 0 0 0 0
Wind_Speed
2 2 2 2 2 2 3 3 3 3 3 4 4 5 5 5 5 5 3 4 7 8 9 9 9 9 9 9 8 8 8 8 7 7 7 7 7 7 7 7 7 6 6
2 2 2 2 3 3 4 4 4 4 4 3 4 5 5 5 5 5 5 4 6 7 8 8 8 9 9 9 9 9 9 8 8 7 7 8 8 8 8 8 8 8 8
3 3 2 2 3 4 4 4 4 3 4 4 5 5 5 5 5 5 5 4 4 4 6 8 9 9 9 8 8 9 9 8 8 8 8 8 8 8 8 9 9 9 9
3 3 2 3 4 3 3 3 4 3 3 4 4 4 5 5 6 6 5 5 5 4 4 6 8 8 9 9 9 8 7 8 8 9 9 9 9 9 9 9 9 9 10
3 3 3 3 3 3 3 3 3 4 4 4 5 5 5 5 5 5 5 5 5 5 4 3 5 6 8 9 9 9 9 9 9 9 9 9 10 10 10 10 10 10 10
3 3 3 3 3 3 3 3 4 4 4 4 5 5 5 6 5 5 5 4 4 5 5 5 4 4 6 8 9 9 9 9 8 8 8 8 9 10 11 11 11 12 12
3 3 3 3 3 3 4 4 4 4 4 3 4 5 5 6 5 4 4 4 4 4 4 4 4 4 3 5 7 8 9 9 9 8 8 8 8 9 9 10 11 12 12
4 3 3 3 3 3 4 4 4 3 3 2 3 4 4 4 3 4 4 3 3 3 4 4 4 4 4 3 3 6 8 9 10 10 10 9 10 10 10 11 11 11 12
3 3 4 4 4 3 4 4 4 4 4 3 2 3 4 4 4 3 4 4 4 4 4 4 5 4 4 4 4 4 6 8 10 11 11 11 11 11 12 12 12 12 12
4 4 4 4 4 4 4 4 4 4 5 4 3 3 5 5 5 5 4 4 5 5 6 5 5 5 5 4 4 5 5 7 9 10 11 11 12 12 12 12 13 13 13
4 4 4 4 4 4 5 5 4 4 4 5 4 4 5 5 6 7 8 6 5 5 6 6 5 5 5 5 5 5 6 8 8 10 10 11 12 13 13 13 13 13 13
3 4 5 4 4 4 5 6 5 5 5 6 5 4 4 4 5 6 8 9 8 6 6 5 5 5 4 5 6 6 7 9 9 10 10 10 11 12 13 14 14 13 13
4 5 5 5 5 5 6 5 5 5 6 6 6 5 6 6 6 6 7 7 9 7 6 5 5 5 5 5 5 7 8 9 10 10 10 10 11 11 12 13 14 14 14
4 5 5 5 6 6 6 6 5 6 6 7 7 7 6 6 6 5 5 6 8 7 7 7 5 5 5 5 6 8 7 8 10 10 11 11 11 11 12 13 14 14 14
4 5 5 6 6 6 6 6 5 6 6 6 7 7 7 6 5 5 5 6 7 8 9 7 5 5 5 6 7 7 8 9 10 11 11 11 11 12 12 13 14 15 14
5 6 6 6 6 6 6 6 6 6 7 6 6 7 7 5 5 5 5 6 6 8 9 6 7 6 6 6 7 8 9 10 10 11 11 11 11 12 13 13 14 14 14
5 5 6 6 6 6 6 6 6 7 7 7 7 7 8 8 6 6 5 6 6 7 9 8 6 6 8 8 7 7 8 8 7 10 11 11 12 12 13 13 13 13 13
6 6 6 6 6 6 6 6 7 7 8 8 8 8 9 7 8 7 6 7 7 7 8 11 8 6 8 8 8 8 7 7 7 9 11 13 12 12 13 13 13 12 13
6 6 6 6 7 7 7 7 7 8 8 8 8 9 9 9 9 7 8 8 7 7 7 9 9 7 6 6 7 7 8 7 7 8 10 12 12 12 13 13 13 13 12
6 6 7 7 7 7 7 7 7 8 8 9 9 9 9 9 9 9 8 8 8 8 8 8 8 7 6 6 6 6 7 6 7 7 9 8 10 11 13 14 13 13 13
6 6 7 8 7 7 6 8 8 9 9 9 9 9 9 9 10 9 8 8 9 8 8 8 8 7 6 5 6 6 7 7 7 6 6 6 7 7 8 11 12 12 13
6 6 7 7 8 6 9 11 10 9 9 10 10 9 9 9 8 11 12 12 12 10 10 9 8 9 9 8 7 7 7 7 8 4 6 8 6 7 7 7 10 12 13
6 7 7 7 8 9 11 12 12 10 10 9 9 9 8 7 9 9 10 12 11 12 13 11 12 11 11 9 9 9 9 9 9 6 6 8 6 7 6 7 12 13 13
6 7 7 8 9 9 12 12 13 10 9 9 9 10 9 9 9 9 10 10 10 10 10 9 10 11 10 9 9 10 10 9 9 6 6 8 6 7 6 7 10 11 11
7 7 8 8 9 10 12 13 13 8 8 9 9 9 10 10 11 12 11 11 11 10 10 11 13 14 14 13 10 7 6 7 8 7 4 6 6 6 7 6 6 9 10
7 7 8 8 9 10 11 13 13 7 8 8 8 8 9 10 12 13 11 10 11 10 9 9 10 11 10 10 10 8 7 7 7 6 4 4 5 4 5 4 4 5 6
Wind_Direction
334 328 325 317 307 300 283 278 275 281 279 281 284 284 278 273 270 267 263 238 244 254 257 259 260 260 257 257 253 248 248 247 247 245 243 245 249 251 252 252 255 259 263
330 320 324 322 320 313 307 291 287 286 284 283 284 285 285 281 271 270 272 258 238 250 258 261 265 267 263 259 256 249 250 249 248 248 249 248 249 249 250 251 251 255 258
326 320 318 316 316 313 313 306 295 292 296 292 285 283 280 276 278 273 270 271 259 239 247 259 264 267 265 266 262 256 252 251 249 247 248 249 250 252 254 255 254 254 256
325 315 315 315 318 314 313 318 316 300 293 290 286 284 279 273 270 270 267 262 263 263 249 252 260 263 265 266 263 261 259 258 257 256 253 251 251 253 255 255 256 258 259
317 308 307 316 316 313 318 324 317 311 303 301 293 287 282 277 271 268 266 266 262 261 263 258 256 261 266 265 264 263 262 261 260 261 261 258 256 255 254 255 256 257 259
310 301 303 312 315 313 317 319 312 309 303 307 299 289 281 273 267 262 266 270 268 262 260 263 254 246 252 262 264 264 266 266 264 265 264 264 263 261 257 256 256 258 259
305 299 304 305 309 301 304 309 307 306 309 318 307 300 279 262 259 265 264 265 274 275 272 272 269 270 256 253 261 265 266 267 270 270 268 267 266 266 267 266 263 260 259
309 297 295 297 296 291 298 305 311 307 304 308 303 304 297 276 251 264 266 270 275 277 285 283 275 272 270 264 274 271 271 273 274 273 271 269 268 268 268 268 269 268 265
311 304 302 296 292 287 290 294 290 289 291 286 278 279 289 290 309 259 263 272 279 278 276 276 279 279 277 272 273 273 284 284 281 278 274 270 267 265 266 267 267 267 268
320 314 310 305 301 295 290 285 284 282 281 281 276 264 269 286 284 289 270 271 281 278 277 279 274 275 276 274 274 288 289 281 282 282 279 273 270 269 268 267 266 265 265
313 315 314 309 303 297 294 292 287 279 273 274 273 272 264 263 265 275 281 283 278 274 276 274 274 272 272 272 272 283 283 275 276 278 280 277 272 269 268 268 266 265 266
312 315 310 304 302 299 297 293 286 278 275 275 274 270 267 264 262 265 275 281 280 279 275 272 270 269 273 272 273 285 278 272 273 275 276 277 276 271 269 268 268 268 268
322 324 322 315 312 307 300 297 295 292 285 283 278 276 272 268 272 269 272 282 284 282 273 267 268 269 274 276 278 287 272 272 272 272 273 274 274 274 271 268 269 270 270
320 328 326 325 324 321 317 312 302 297 295 290 286 282 276 275 275 270 271 279 286 282 270 270 269 266 270 273 280 279 273 272 274 272 272 272 273 273 271 268 268 268 269
323 330 326 322 320 319 320 317 306 308 305 299 297 295 290 288 286 280 275 269 273 282 279 274 273 264 271 273 276 274 273 273 269 270 269 269 271 271 272 270 268 267 266
324 323 324 322 320 318 318 316 310 307 306 303 302 300 297 294 291 286 279 275 270 273 277 281 278 280 272 273 274 273 272 275 264 265 267 267 268 270 273 274 274 271 269
322 321 322 321 319 317 318 316 310 310 306 305 305 302 301 299 291 287 285 281 277 274 276 284 286 285 277 272 275 274 275 274 269 265 268 268 268 269 271 271 271 272 273
323 321 319 314 313 314 314 309 306 308 304 303 305 303 301 303 298 295 290 285 281 276 275 280 283 283 282 280 278 276 275 274 273 270 267 267 266 267 268 268 269 271 272
319 319 316 312 311 309 306 304 302 300 298 297 298 297 298 299 296 295 294 290 287 286 280 277 280 281 281 283 285 282 279 274 273 275 270 265 265 268 269 267 268 268 268
314 314 312 308 305 304 302 302 300 298 297 296 295 294 294 293 293 295 293 293 293 290 285 281 280 282 282 287 285 282 281 276 274 277 273 271 270 268 266 265 266 266 265
313 313 309 306 304 301 300 302 301 298 297 297 296 294 293 293 293 292 290 292 293 290 287 284 283 285 283 287 280 280 277 283 277 274 277 276 275 268 263 261 261 265 268
312 312 308 307 305 301 303 303 302 299 297 295 295 296 296 292 291 291 286 284 281 281 282 281 282 280 283 283 287 284 283 282 281 274 280 279 278 274 272 267 268 272 271
307 306 305 304 301 302 307 307 306 302 294 290 291 293 293 294 295 296 294 289 283 277 273 276 277 277 282 284 285 283 280 280 280 287 284 279 278 274 279 277 279 275 274
298 299 300 300 299 300 305 306 307 302 294 290 290 290 289 292 294 296 295 292 290 287 284 279 277 280 283 286 281 281 282 284 285 281 277 278 283 282 288 282 278 276 279
295 296 296 297 296 297 301 303 303 298 292 292 291 290 289 290 294 297 294 290 291 291 292 283 279 280 283 283 280 277 276 277 280 280 274 272 284 296 290 281 284 280 275
290 294 293 294 293 294 299 300 300 293 292 292 292 288 285 286 291 295 291 287 287 292 296 295 288 285 282 278 273 266 266 267 276 277 275 280 284 300 292 285 292 294 285